Regional Weather Roundup
Issued by NWS Upton, NY

Current Version | Previous Version | Text Only | Print | Product List | Glossary On
Versions: 1 2 3 4 5 6 7 8 9 10 11 12 13 14 15 16 17 18 19 20 21 22 23 24 25 26 27 28
000
ASUS41 KOKX 252108
RWROKX

REGIONAL WEATHER ROUNDUP
NATIONAL WEATHER SERVICE NEW YORK NY
400 PM EST SAT FEB 25 2017

NOTE: "FAIR" INDICATES FEW OR NO CLOUDS BELOW 12,000 FEET WITH NO
SIGNIFICANT WEATHER AND/OR OBSTRUCTIONS TO VISIBILITY.

NYZ071-072-176-178-NJZ106-104-252200-
NEW YORK CITY METRO AREA

CITY           SKY/WX    TMP DP  RH WIND       PRES   REMARKS
Central Park   MOSUNNY   60  55  83 S12G24    29.50F
Wall St Helipt NOT AVBL
LaGuardia APRT PTSUNNY   63  55  75 S20G31    29.47F
Kennedy INTL   FOG       57  55  93 S20       29.52F VSB 1
Breezy Point     N/A     46 N/A N/A S14         N/A
Newark/Liberty MOSUNNY   64  56  75 SE16G30   29.47F
Teterboro      MOSUNNY   68  57  68 SE18G31   29.45F
$$

NYZ177-179-078>081-252200-
LONG ISLAND NEW YORK

CITY           SKY/WX    TMP DP  RH WIND       PRES   REMARKS
Jones Beach      N/A     48 N/A N/A S10         N/A
Matinecock PT    N/A     64 N/A N/A S12G17      N/A
Farmingdale    CLOUDY    56  52  86 S14       29.52F
MacArthur/ISP  PTSUNNY   59  56  89 S13       29.54F
Shirley        CLOUDY    58  56  93 SE12      29.56F
Westhampton    CLOUDY    57  53  86 SE13G20   29.58F
Southampton    NOT AVBL
Bridgehampton  NOT AVBL
East Hampton   CLOUDY    52  50  93 SE10      29.57F FOG
Montauk          N/A     52  51  97 SE8G17    29.59F
$$

NYZ052-065-067-252200-
HUDSON VALLEY

CITY           SKY/WX    TMP DP  RH WIND       PRES   REMARKS
White Plains   PTSUNNY   62  56  80 SE10      29.49F
Newburgh       PTSUNNY   64  57  77 S17G29    29.46F
Montgomery     CLOUDY    65  54  67 S18G28    29.42F
Poughkeepsie   CLOUDY    64  54  69 SE13G25   29.44F
Albany         PTSUNNY   67  50  54 S22G39    29.41F
$$

NJZ001-105-106-008-010-013-015-019>022-104-252200-
NEW JERSEY

CITY           SKY/WX    TMP DP  RH WIND       PRES   REMARKS
Newark/Liberty MOSUNNY   64  56  75 SE16G30   29.47F
Teterboro      MOSUNNY   68  57  68 SE18G31   29.45F
Caldwell       SUNNY     66  55  67 S16G24    29.47F
Somerville     PTSUNNY   71  53  52 S13G28    29.43F
Linden         NOT AVBL
Sussex         PTSUNNY   66  55  67 SE13G21   29.42F
Andover          N/A     68  53  58 S10G23    29.42F
Trenton        SUNNY     69  54  58 S21G29    29.44F
Millville      SUNNY     64  58  80 S14G23    29.48F
Atlantic City  CLOUDY    60  55  83 SE12G20   29.51F
Wrightstown    SUNNY     68  56  65 S14G26    29.44F
Toms River     PTSUNNY   64  58  80 S16G24    29.50F
Belmar         MOSUNNY   60  56  86 SE17G25   29.51F
$$

PAZ047>061-062-071-252200-
EASTERN PENNSYLVANIA

CITY           SKY/WX    TMP DP  RH WIND       PRES   REMARKS
Philadelphia   PTSUNNY   69  54  58 S18       29.43F
Allentown      CLOUDY    71  54  54 S17G29    29.38F
Scranton       TSTM      55  55 100 SW21G31   29.41R VSB 1
$$

CTZ002-004>006-009-010-012-RIZ004-006-007-MAZ004-011-015-252200-
SOUTHERN NEW ENGLAND
 IN CT

CITY           SKY/WX    TMP DP  RH WIND       PRES   REMARKS
Bradley INTL   PTSUNNY   66  55  67 S16G25    29.53F
Hartford       CLOUDY    65  56  72 S17       29.53F
Danbury        CLOUDY    61  55  81 SE10G17   29.51F
Wtrbury/Oxford CLOUDY    61  54  77 S13G20    29.54F
Bridgeport     CLOUDY    51  46  83 E9        29.53F
Meriden        CLOUDY    64  55  72 SE12G18   29.54F
New Haven      PTSUNNY   57  52  83 SE12      29.54F
Chester        CLOUDY    61  57  88 S10       29.57F
Groton         CLOUDY    52  50  93 SE8       29.58F FOG
Wilimantic     CLOUDY    64  57  78 S10       29.58F

 IN RI

CITY           SKY/WX    TMP DP  RH WIND       PRES   REMARKS
Providence     CLOUDY    55  52  89 S14       29.61F FOG
Block Island   FOG       51  50  96 SE18G24   29.60F VSB 1/4
Westerly       FOG       53  50  89 SE10      29.60F VSB 1/4
 IN MA

CITY           SKY/WX    TMP DP  RH WIND       PRES   REMARKS
Boston         PTSUNNY   62  56  80 S18       29.61F
Worcester      CLOUDY    62  52  69 SE21G26   29.57F
Westfield      CLOUDY    65  56  72 S15G25    29.51F
Provincetown   CLOUDY    58  54  86 S12       29.66F
Nantucket      CLOUDY    53  50  89 SE16      29.64F FOG
$$

ANZ330-335-338-340-345-350-353-355-252200-
COASTAL MARINE OBSERVATIONS


STATION/POSITION TIME  SKY/WX   TEMP    WIND        PRES    VSBY  WAVE
                                AIR SEA DIR/SP/G                  HT/PER
                 (UTC)          (F)     (DEG/KT/KT) (MB)    (MI)  (FT/S)
NY HARB ENTRANCE 1950            49 44  170/ 12/ 12 1001.1          5/10
20 S FIRE ISLAND 2050            48 44  150/ 12/ 14 1000.2          5/ 8
GREAT SOUTH BAY  NOT AVBL
23 SSW MONTAUK P 1950            49 44              1003.0          5/ 8
15 E BARNEGAT LI 2030               45                N/A           6/11
HUDSON CANYON    1950               49              1002.4          7/11
KINGS POINT      2036            59 42               998.9
EXECUTION ROCKS  NOT AVBL
CENTRAL LI SOUND 2015            49     140/  8/ 10   N/A           1
EASTERN LI SOUND NOT AVBL
ROBBINS REEF     2042            56     150/ 24/ 27  998.5
$$


>>>>>>>>>>>>>>>>>>>>>>>>>>>> KEY <<<<<<<<<<<<<<<<<<<<<<<<<<<
>                                                          <
>     SKY/WX - Sky Condition/Present Weather               <
>     TMP    - Temperature in Fahrenheit                   <
>     DP     - Dew Point in Fahrenheit                     <
>     RH     - Relative Humidity in Percent                <
>     WIND   - Direction (from) and Speed in MPH           <
>     PRES   - Mean Sea Level Pressure (inches of Hg)      <
>     WCI    - Wind Chill Index                            <
>     VSB    - VISIBILITY IN MILES                         <
>     HX     - HEAT INDEX                                  <
>     TC     - TEMPERATURE IN CELSIUS                      <
>     VRB    - VARIABLE WIND DIRECTION                     <
>                                                          <
>>>>>>>>>>>>>>>>>>>>>>>>>>>> KEY <<<<<<<<<<<<<<<<<<<<<<<<<<<




USA.gov is the U.S. government's official web portal to all federal, state and local government web resources and services.